Location: Zagreb
(45.8000°N, 16.0000°E)
Time: 17:29:53
(UTC+01:00)

Tiros 1 despin weight - Pass Details

Date: 27 January 2020
Orbit: 594 x 642 km, 48.2° (Epoch: 25 February)

Event Time Altitude Azimuth Distance (km) Brightness Sun altitude
Rises 14:35:17 0° 286° (WNW) 2,893 ? 17.6°
Reaches altitude 10° 14:37:35 10° 287° (WNW) 1,994 ? 17.4°
Maximum altitude 14:42:11 85° 15° (NNE) 637 ? 16.9°
Drops below altitude 10° 14:46:51 10° 106° (ESE) 2,017 ? 16.4°
Sets 14:49:11 0° 107° (ESE) 2,929 ? 16.1°
